Starlink 4051

operational
NORAD ID: 53273 Int'l Des: 2022-086 Owner: SPXS Country: US Constellation: starlink
LEOCIRCULAR

Über Starlink 4051

Beschreibung wird geladen...

Live-Position

3D-Globus wird geladen...

Nächste Überflüge

Höhenverlauf

Altitude vs Time

uPlot chart will show altitude changes over time

Zweizeiliger Elementsatz

1 53273U 22086AH 25306.51486507 .00002606 00000-0 18164-3 0 9997
2 53273 53.2155 35.0292 0001275 85.3552 274.7586 15.08859785181990
Epoch: 2. Nov. 2025 • Age: 27 hours

Aktueller Status

Höhe 539.5 km
Geschwindigkeit 7.60 km/s
Subsatellitenpunkt 15.33°N, 126.58°E
Startdatum 24. Juli 2022
Alter 3.2 years
Typ internet

Technische Details

Klassifizierung Payload
Masse 297.00 kg
Trockenmasse 275.00 kg
Gesamtmasse 297.00 kg
Länge 0.20 m
Durchmesser 2.80 m
Spannweite 9.00 m
Form Box + pan
Hersteller SPXS
Bus-Typ Starlink
Phasenstatus In Orbit
Besitzer/Staat SPXS/US

Große Konstellationen

Loading constellations...